TimeEST,TemperatureF,Dew PointF,Humidity,Sea Level PressureIn,VisibilityMPH,Wind Direction,Wind SpeedMPH,Gust SpeedMPH,PrecipitationIn,Events,Conditions,WindDirDegrees,DateUTC
12:25 AM,8.6,5.0,85,30.23,0.8,WNW,6.9,-,0.00,Snow,Light Snow,300,2013-01-27 05:25:00
12:34 AM,8.6,5.0,85,30.23,1.0,NW,8.1,-,0.00,Snow,Light Snow,310,2013-01-27 05:34:00
12:44 AM,8.6,5.0,85,30.23,1.2,WNW,9.2,-,0.00,Snow,Light Snow,300,2013-01-27 05:44:00
12:51 AM,8.1,5.0,87,30.32,1.2,WNW,12.7,-,0.00,Snow,Light Snow,300,2013-01-27 05:51:00
1:06 AM,8.6,5.0,85,30.23,1.8,NW,11.5,-,0.00,Snow,Light Snow,310,2013-01-27 06:06:00
1:08 AM,8.6,3.2,79,30.23,2.0,NW,13.8,-,0.00,Snow,Light Snow,310,2013-01-27 06:08:00
1:48 AM,8.6,3.2,79,30.25,3.0,NW,17.3,24.2,0.00,Snow,Light Snow,310,2013-01-27 06:48:00
1:51 AM,8.1,3.0,80,30.34,3.0,WNW,13.8,24.2,0.00,Snow,Light Snow,300,2013-01-27 06:51:00
2:51 AM,6.1,1.0,80,30.36,7.0,WNW,16.1,-,0.00,,Mostly Cloudy,300,2013-01-27 07:51:00
3:01 AM,6.8,1.4,79,30.27,6.0,NW,16.1,24.2,N/A,,Haze,310,2013-01-27 08:01:00
3:51 AM,5.0,-0.4,78,30.29,9.0,WNW,15.0,23.0,N/A,,Clear,300,2013-01-27 08:51:00
4:51 AM,5.0,-2.0,73,30.40,10.0,NW,9.2,19.6,N/A,,Clear,320,2013-01-27 09:51:00
5:51 AM,3.9,-2.9,73,30.42,10.0,Variable,4.6,-,N/A,,Clear,0,2013-01-27 10:51:00
6:51 AM,3.2,-4.0,72,30.35,10.0,Variable,3.5,-,N/A,,Clear,0,2013-01-27 11:51:00
7:51 AM,3.0,-4.0,73,30.46,10.0,Calm,Calm,-,N/A,,Clear,0,2013-01-27 12:51:00
8:51 AM,5.0,-5.1,63,30.49,10.0,WNW,9.2,-,0.00,,Clear,300,2013-01-27 13:51:00
9:51 AM,7.0,-4.0,61,30.50,10.0,NW,9.2,17.3,0.00,,Clear,320,2013-01-27 14:51:00
10:51 AM,8.1,-5.1,55,30.51,10.0,NNW,11.5,18.4,N/A,,Clear,330,2013-01-27 15:51:00
11:51 AM,10.0,-4.0,53,30.51,10.0,NNW,6.9,-,N/A,,Clear,330,2013-01-27 16:51:00
12:51 PM,12.0,-7.1,42,30.50,10.0,NNW,9.2,19.6,N/A,,Clear,330,2013-01-27 17:51:00
1:51 PM,12.9,-9.9,35,30.49,10.0,WNW,10.4,19.6,0.00,,Clear,290,2013-01-27 18:51:00
2:51 PM,14.0,-9.9,34,30.50,10.0,WNW,10.4,-,N/A,,Clear,300,2013-01-27 19:51:00
3:51 PM,14.0,-8.0,37,30.51,10.0,NNW,8.1,-,N/A,,Clear,330,2013-01-27 20:51:00
4:51 PM,12.9,-7.1,41,30.52,10.0,WNW,10.4,-,N/A,,Clear,300,2013-01-27 21:51:00
5:51 PM,10.9,-7.1,44,30.54,10.0,NNW,6.9,-,N/A,,Clear,340,2013-01-27 22:51:00
6:51 PM,9.0,-6.0,51,30.54,10.0,NW,5.8,-,N/A,,Clear,320,2013-01-27 23:51:00
7:51 PM,8.1,-6.0,53,30.54,10.0,Calm,Calm,-,N/A,,Clear,0,2013-01-28 00:51:00
8:51 PM,1.9,-8.0,63,30.53,10.0,Calm,Calm,-,N/A,,Clear,0,2013-01-28 01:51:00
9:51 PM,-0.0,-9.0,66,30.52,10.0,South,3.5,-,N/A,,Clear,180,2013-01-28 02:51:00
10:51 PM,-0.0,-8.0,69,30.53,10.0,South,3.5,-,N/A,,Clear,180,2013-01-28 03:51:00
11:51 PM,1.0,-7.1,69,30.52,10.0,East,3.5,-,N/A,,Overcast,80,2013-01-28 04:51:00